Monticello, AR

5:22 PM CST on February 09, 2016 (GMT -0600)
Monticello Municipal-Ellis

Weather History for KLLQ - December, 2013

Change the Weather History Date:

Friday, December 6, 2013

  Actual Average Record
Temperature  
Mean Temperature 32 °F -  
Max Temperature 37 °F 59 °F 79 °F (1998)
Min Temperature 28 °F 37 °F 21 °F (1959)
Degree Days  
Heating Degree Days 32    
Moisture  
Dew Point 31 °F    
Average Humidity 89    
Maximum Humidity 93    
Minimum Humidity 81    
Precipitation  
Precipitation 1.53 in - - ()
Sea Level Pressure  
Sea Level Pressure 30.18 in    
Wind  
Wind Speed 8 mph (NNE)    
Max Wind Speed 15 mph    
Max Gust Speed 25 mph    
Visibility 6 miles    
Events Rain , Thunderstorm    
Averages and records for this station are not official NWS values.
T = Trace of Precipitation, MM = Missing Value Source: NWS Daily Summary

Daily Weather History Graph

Daily Weather History Graph

Search for Another Location

Airport or City:

Trip Planner

Search our weather history database for the weather conditions in past years. The results will help you decide how hot, cold, wet, or windy it might be!

Date:

Astronomy

Dec. 06, 2013 Rise Set
Actual Time 6:57 AM CST 4:58 PM CST
Civil Twilight 6:30 AM CST 5:25 PM CST
Nautical Twilight 5:59 AM CST 5:56 PM CST
Astronomical Twilight 5:29 AM CST 6:27 PM CST
Moon 10:10 AM CST (12/6) 9:22 PM CST (12/6)
Length of Visible Light 10h 55m
Length of Day
10h 00m
Waxing Crescent, 19% of the Moon is Illuminated
Dec 6
Waxing Crescent
Dec 9
First Quarter
Dec 17
Full
Dec 25
Last Quarter
Jan 1
New

Hourly Weather History & Observations

Time (CST) Temp. Windchill Dew Point Humidity Pressure Visibility Wind Dir Wind Speed Gust Speed Precip Events Conditions
12:00 AM 37.4 °F 30.8 °F 33.8 °F 87% 30.10 in 7.0 mi NNE 9.2 mph 17.3 mph N/A   Overcast
12:43 AM 37.4 °F 31.4 °F 33.8 °F 87% 30.10 in 4.0 mi North 8.1 mph - 0.01 in Rain Light Rain
12:53 AM 36.0 °F 31.1 °F 34.0 °F 93% 30.09 in 4.0 mi Variable 5.8 mph - 0.01 in Rain Light Rain
1:53 AM 36.0 °F 29.0 °F 34.0 °F 93% 30.06 in 8.0 mi NE 9.2 mph - 0.00 in   Overcast
2:25 AM 37.4 °F 34.9 °F 33.8 °F 87% 30.09 in 10.0 mi Variable 3.5 mph - N/A   Overcast
2:37 AM 37.4 °F 32.8 °F 33.8 °F 87% 30.08 in 10.0 mi Variable 5.8 mph - 0.00 in Rain Light Rain
2:53 AM 36.0 °F 30.3 °F 34.0 °F 93% 30.08 in 4.0 mi NNE 6.9 mph - 0.01 in Rain Light Rain
3:53 AM 36.0 °F 30.3 °F 33.1 °F 89% 30.06 in 10.0 mi NE 6.9 mph 20.7 mph 0.00 in Rain Light Rain
4:53 AM 36.0 °F 29.0 °F 33.1 °F 89% 30.07 in 10.0 mi NNE 9.2 mph - 0.05 in Rain Light Rain
5:07 AM 35.6 °F 29.9 °F 33.8 °F 93% 30.07 in 10.0 mi NNE 6.9 mph - 0.00 in Rain Light Rain
5:53 AM 35.1 °F 30.1 °F 32.0 °F 89% 30.11 in 5.0 mi Variable 5.8 mph 17.3 mph 0.01 in Rain Light Rain
6:01 AM 35.6 °F 30.7 °F 32.0 °F 87% 30.11 in 4.0 mi Variable 5.8 mph - 0.05 in Rain , Thunderstorm Rain
6:05 AM 35.6 °F 31.7 °F 33.8 °F 93% 30.13 in 1.8 mi Variable 4.6 mph - 0.15 in Rain , Thunderstorm Heavy Rain
6:14 AM 35.6 °F 29.9 °F 33.8 °F 93% 30.09 in 2.0 mi NNE 6.9 mph - 0.23 in Rain Heavy Rain
6:24 AM 35.6 °F 29.2 °F 32.0 °F 87% 30.09 in 4.0 mi NNE 8.1 mph 16.1 mph 0.26 in Rain Heavy Rain
6:37 AM 33.8 °F 26.4 °F 32.0 °F 93% 30.11 in 2.5 mi NE 9.2 mph - 0.35 in Rain Heavy Rain
6:51 AM 35.6 °F 31.7 °F 32.0 °F 87% 30.12 in 5.0 mi Variable 4.6 mph - 0.39 in Rain Rain
6:53 AM 35.1 °F 30.1 °F 32.0 °F 89% 30.13 in 5.0 mi NNE 5.8 mph - 0.39 in Rain Rain
7:20 AM 33.8 °F 25.8 °F 32.0 °F 93% 30.07 in 10.0 mi NNE 10.4 mph 20.7 mph 0.01 in Rain Light Rain
7:53 AM 34.0 °F 28.0 °F 32.0 °F 92% 30.15 in 2.0 mi NNE 6.9 mph - 0.14 in Rain Heavy Rain
8:09 AM 33.8 °F 27.0 °F 32.0 °F 93% 30.11 in 1.8 mi NNE 8.1 mph 16.1 mph 0.10 in Rain Heavy Rain
8:12 AM 33.8 °F 24.8 °F 32.0 °F 93% 30.10 in 2.0 mi NE 12.7 mph 17.3 mph 0.11 in Rain Rain
8:16 AM 33.8 °F 25.3 °F 32.0 °F 93% 30.09 in 3.0 mi NE 11.5 mph 17.3 mph 0.11 in Rain Light Rain
8:50 AM 33.8 °F 23.9 °F 30.2 °F 87% 30.11 in 6.0 mi NE 15.0 mph 25.3 mph 0.13 in Rain Light Rain
8:53 AM 34.0 °F 25.0 °F 30.9 °F 89% 30.12 in 6.0 mi NE 12.7 mph 25.3 mph 0.13 in Rain Light Rain
9:17 AM 33.8 °F 29.6 °F 32.0 °F 93% 30.14 in 3.0 mi Variable 4.6 mph - 0.03 in Rain Rain
9:53 AM 34.0 °F 28.0 °F 30.9 °F 89% 30.15 in 6.0 mi NNE 6.9 mph - 0.07 in Rain Light Rain
10:08 AM 33.8 °F 27.0 °F 30.2 °F 87% 30.16 in 3.0 mi NE 8.1 mph 16.1 mph 0.04 in Rain , Thunderstorm Rain
10:20 AM 33.8 °F 27.7 °F 30.2 °F 87% 30.21 in 2.0 mi Variable 6.9 mph - 0.10 in Rain , Thunderstorm Heavy Rain
10:28 AM 33.8 °F 27.0 °F 30.2 °F 87% 30.18 in 1.8 mi NNE 8.1 mph - 0.17 in Rain Heavy Rain
10:42 AM 33.8 °F 26.4 °F 30.2 °F 87% 30.16 in 2.5 mi NNE 9.2 mph 20.7 mph 0.23 in Rain Heavy Rain
10:53 AM 33.1 °F 26.1 °F 30.9 °F 92% 30.17 in 2.5 mi NNE 8.1 mph - 0.28 in Rain Rain
10:55 AM 33.8 °F 26.4 °F 30.2 °F 87% 30.16 in 3.0 mi NE 9.2 mph - 0.00 in Rain Rain
11:07 AM 33.8 °F 29.6 °F 30.2 °F 87% 30.18 in 2.0 mi North 4.6 mph - 0.05 in Rain Heavy Rain
11:27 AM 33.8 °F 27.7 °F 30.2 °F 87% 30.21 in 2.0 mi Variable 6.9 mph - 0.11 in Rain , Thunderstorm Heavy Rain
11:40 AM 33.8 °F 27.7 °F 30.2 °F 87% 30.19 in 1.5 mi Variable 6.9 mph 23.0 mph 0.20 in Rain , Thunderstorm Heavy Thunderstorms and Rain
11:47 AM 33.8 °F 27.0 °F 30.2 °F 87% 30.19 in 2.5 mi North 8.1 mph 16.1 mph 0.22 in Rain Rain
11:53 AM 33.1 °F 26.9 °F 30.9 °F 92% 30.18 in 1.8 mi Variable 6.9 mph - 0.29 in Rain Heavy Rain
12:01 PM 33.8 °F 27.0 °F 30.2 °F 87% 30.18 in 1.8 mi NNE 8.1 mph - 0.03 in Rain Heavy Rain
12:05 PM 33.8 °F 29.6 °F 30.2 °F 87% 30.17 in 3.0 mi Variable 4.6 mph - 0.03 in Rain Rain
12:26 PM 33.8 °F 29.6 °F 30.2 °F 87% 30.20 in 3.0 mi North 4.6 mph - 0.07 in Rain Rain
12:53 PM 34.0 °F 26.0 °F 30.9 °F 89% 30.19 in 4.0 mi North 10.4 mph 17.3 mph 0.09 in Rain Rain
1:27 PM 33.8 °F 27.7 °F 30.2 °F 87% 30.18 in 9.0 mi NNE 6.9 mph - 0.02 in Rain Light Rain
1:53 PM 34.0 °F 27.2 °F 30.9 °F 89% 30.19 in 4.0 mi North 8.1 mph - 0.03 in Rain Rain
2:35 PM 33.8 °F 29.6 °F 30.2 °F 87% 30.20 in 10.0 mi Variable 4.6 mph 19.6 mph 0.01 in Rain Light Rain
2:53 PM 33.1 °F 27.7 °F 30.0 °F 89% 30.22 in 7.0 mi NNE 5.8 mph 19.6 mph 0.02 in Rain Rain
3:53 PM 33.1 °F - 30.0 °F 89% 30.24 in 10.0 mi Calm Calm - 0.01 in   Overcast
4:16 PM 33.8 °F 27.7 °F 30.2 °F 87% 30.25 in 10.0 mi North 6.9 mph - N/A   Overcast
4:24 PM 33.8 °F 27.7 °F 28.4 °F 81% 30.26 in 10.0 mi North 6.9 mph - N/A   Overcast
4:53 PM 32.0 °F 24.2 °F 28.9 °F 88% 30.29 in 10.0 mi North 9.2 mph - N/A   Overcast
5:53 PM 30.9 °F 22.2 °F 27.0 °F 85% 30.33 in 10.0 mi North 10.4 mph 18.4 mph N/A   Overcast
6:53 PM 30.0 °F 25.2 °F 27.0 °F 88% 30.35 in 10.0 mi Variable 4.6 mph - N/A   Overcast
7:53 PM 28.9 °F 20.4 °F 26.1 °F 89% 30.38 in 8.0 mi North 9.2 mph 19.6 mph N/A   Overcast
8:53 PM 28.9 °F 19.8 °F 25.0 °F 85% 30.40 in 10.0 mi NNE 10.4 mph 19.6 mph N/A   Overcast
9:53 PM 28.9 °F 20.4 °F 25.0 °F 85% 30.42 in 10.0 mi North 9.2 mph - N/A   Overcast
10:53 PM 28.9 °F 21.1 °F 25.0 °F 85% 30.44 in 9.0 mi North 8.1 mph - N/A   Overcast
11:53 PM 28.0 °F 20.0 °F 25.0 °F 88% 30.44 in 9.0 mi NNE 8.1 mph - N/A   Overcast